| time (UTC) | temp C | wind direction | speed KPH | gust KPH | rain 1hr cm | rain 24hr cm | rain mn cm | humidity % | barometer mb |
| 20260505054337 | 16 | 51 | 4.8 | 12.9 | 0.00 | 0.00 | 0.00 | 42 | 1004.8 |
| 20260505053835 | 17 | 354 | 12.9 | 24.1 | 0.00 | 0.00 | 0.00 | 43 | 1004.9 |
| 20260505053331 | 17 | 199 | 4.8 | 14.5 | 0.00 | 0.00 | 0.00 | 44 | 1004.9 |
| 20260505052828 | 17 | 26 | 9.7 | 20.9 | 0.00 | 0.00 | 0.00 | 44 | 1004.8 |
| 20260505052325 | 17 | 37 | 9.7 | 16.1 | 0.00 | 0.00 | 0.00 | 44 | 1004.5 |
| 20260505051822 | 17 | 162 | 3.2 | 25.7 | 0.00 | 0.00 | 0.00 | 44 | 1004.4 |
| 20260505051320 | 17 | 57 | 9.7 | 16.1 | 0.00 | 0.00 | 0.00 | 45 | 1004.5 |
| 20260505050818 | 17 | 68 | 9.7 | 20.9 | 0.00 | 0.00 | 0.00 | 46 | 1004.4 |
| 20260505050316 | 17 | 61 | 6.4 | 11.3 | 0.00 | 0.00 | 0.00 | 46 | 1004.2 |
| 20260505041746 | 19 | 6 | 3.2 | 16.1 | 0.00 | 0.00 | 0.00 | 46 | 1003.9 |
| 20260505041243 | 19 | 56 | 6.4 | 14.5 | 0.00 | 0.00 | 0.00 | 46 | 1003.7 |
| 20260505040740 | 20 | 125 | 6.4 | 12.9 | 0.00 | 0.00 | 0.00 | 46 | 1003.9 |
| 20260505040238 | 20 | 62 | 6.4 | 17.7 | 0.00 | 0.00 | 0.00 | 47 | 1003.9 |
| 20260505035735 | 20 | 81 | 11.3 | 22.5 | 0.00 | 0.00 | 0.00 | 47 | 1003.5 |
| 20260505035230 | 20 | 117 | 3.2 | 22.5 | 0.00 | 0.00 | 0.00 | 48 | 1003.4 |
| 20260505034728 | 20 | 23 | 6.4 | 20.9 | 0.00 | 0.00 | 0.00 | 48 | 1003.3 |
| 20260505034224 | 20 | 144 | 9.7 | 16.1 | 0.00 | 0.00 | 0.00 | 49 | 1003.4 |
| 20260505033721 | 20 | 332 | 3.2 | 16.1 | 0.00 | 0.00 | 0.00 | 47 | 1003.3 |
| 20260505033219 | 20 | 27 | 3.2 | 6.4 | 0.00 | 0.00 | 0.00 | 47 | 1002.9 |
| 20260505032717 | 20 | 134 | 0.0 | 11.3 | 0.00 | 0.00 | 0.00 | 46 | 1002.9 |
| 20260505032212 | 20 | 35 | 3.2 | 4.8 | 0.00 | 0.00 | 0.00 | 45 | 1003.0 |
| 20260505031710 | 20 | 143 | 0.0 | 1.6 | 0.00 | 0.00 | 0.00 | 45 | 1002.8 |
| 20260505031206 | 20 | 112 | 1.6 | 11.3 | 0.00 | 0.00 | 0.00 | 45 | 1003.1 |
| 20260505030703 | 20 | 124 | 1.6 | 9.7 | 0.00 | 0.00 | 0.00 | 45 | 1003.2 |
| 20260505030159 | 20 | 144 | 0.0 | 1.6 | 0.00 | 0.00 | 0.00 | 45 | 1002.7 |
| 20260505025655 | 20 | 134 | 1.6 | 3.2 | 0.00 | 0.00 | 0.00 | 45 | 1002.8 |
| 20260505025153 | 20 | 141 | 0.0 | 0.0 | 0.00 | 0.00 | 0.00 | 46 | 1002.7 |
| 20260505024650 | 20 | 125 | 0.0 | 0.0 | 0.00 | 0.00 | 0.00 | 46 | 1002.5 |
| 20260505024148 | 20 | 147 | 0.0 | 0.0 | 0.00 | 0.00 | 0.00 | 46 | 1002.4 |
| 20260505023645 | 20 | 144 | 0.0 | 0.0 | 0.00 | 0.00 | 0.00 | 46 | 1002.3 |
| 20260505023143 | 20 | 155 | 0.0 | 0.0 | 0.00 | 0.00 | 0.00 | 46 | 1002.5 |
| 20260505022640 | 20 | 146 | 0.0 | 0.0 | 0.00 | 0.00 | 0.00 | 46 | 1002.2 |
| 20260505022137 | 20 | 146 | 0.0 | 0.0 | 0.00 | 0.00 | 0.00 | 46 | 1002.3 |
| 20260505021633 | 20 | 146 | 0.0 | 0.0 | 0.00 | 0.00 | 0.00 | 46 | 1002.0 |
| 20260505021130 | 20 | 146 | 0.0 | 0.0 | 0.00 | 0.00 | 0.00 | 47 | 1002.3 |
| 20260505020626 | 20 | 144 | 0.0 | 3.2 | 0.00 | 0.00 | 0.00 | 47 | 1002.0 |
| 20260505020122 | 20 | 149 | 0.0 | 1.6 | 0.00 | 0.00 | 0.00 | 47 | 1002.2 |
| 20260505015619 | 20 | 149 | 0.0 | 0.0 | 0.00 | 0.00 | 0.00 | 47 | 1002.0 |
| 20260505015116 | 20 | 151 | 0.0 | 0.0 | 0.00 | 0.00 | 0.00 | 47 | 1001.8 |
| 20260505014613 | 20 | 146 | 0.0 | 0.0 | 0.00 | 0.00 | 0.00 | 47 | 1001.9 |
| 20260505014110 | 20 | 142 | 1.6 | 1.6 | 0.00 | 0.00 | 0.00 | 47 | 1001.8 |
| 20260505013607 | 21 | 153 | 0.0 | 0.0 | 0.00 | 0.00 | 0.00 | 46 | 1001.7 |
| 20260505013104 | 21 | 154 | 0.0 | 0.0 | 0.00 | 0.00 | 0.00 | 46 | 1001.6 |
| 20260505012602 | 21 | 149 | 0.0 | 0.0 | 0.00 | 0.00 | 0.00 | 46 | 1001.5 |
| 20260505012059 | 22 | 133 | 1.6 | 3.2 | 0.00 | 0.00 | 0.00 | 45 | 1002.0 |
| 20260505011554 | 22 | 141 | 0.0 | 3.2 | 0.00 | 0.00 | 0.00 | 45 | 1001.8 |
| 20260505011052 | 22 | 126 | 0.0 | 1.6 | 0.00 | 0.00 | 0.00 | 45 | 1001.7 |
| 20260505010547 | 22 | 169 | 0.0 | 1.6 | 0.00 | 0.00 | 0.00 | 44 | 1001.6 |
| 20260505010044 | 22 | 165 | 0.0 | 1.6 | 0.00 | 0.00 | 0.00 | 44 | 1001.8 |
| 20260505005540 | 22 | 147 | 3.2 | 4.8 | 0.00 | 0.00 | 0.00 | 43 | 1001.4 |
| 20260505005038 | 23 | 143 | 4.8 | 11.3 | 0.00 | 0.00 | 0.00 | 43 | 1001.6 |
| 20260505004535 | 23 | 199 | 8.0 | 12.9 | 0.00 | 0.00 | 0.00 | 41 | 1001.7 |
| 20260505004032 | 23 | 196 | 6.4 | 12.9 | 0.00 | 0.00 | 0.00 | 41 | 1001.9 |
| 20260505003529 | 23 | 176 | 6.4 | 22.5 | 0.00 | 0.00 | 0.00 | 39 | 1002.0 |
| 20260505003026 | 24 | 165 | 16.1 | 24.1 | 0.00 | 0.00 | 0.00 | 38 | 1001.9 |
| 20260505002521 | 24 | 149 | 9.7 | 20.9 | 0.00 | 0.00 | 0.00 | 38 | 1002.2 |
| 20260505002020 | 25 | 220 | 11.3 | 14.5 | 0.00 | 0.00 | 0.00 | 35 | 1002.0 |
| 20260505001517 | 26 | 224 | 14.5 | 24.1 | 0.00 | 0.00 | 0.00 | 31 | 1001.9 |
| 20260505001014 | 27 | 223 | 6.4 | 9.7 | 0.00 | 0.00 | 0.00 | 28 | 1001.8 |
| 20260505000511 | 27 | 173 | 3.2 | 4.8 | 0.00 | 0.00 | 0.00 | 27 | 1001.8 |
| 20260505000009 | 27 | 134 | 4.8 | 12.9 | 0.00 | 0.00 | 0.00 | 25 | 1001.7 |
| 20260504235506 | 27 | 171 | 6.4 | 9.7 | 0.00 | 0.00 | 0.00 | 26 | 1001.6 |
| 20260504235002 | 27 | 142 | 1.6 | 3.2 | 0.00 | 0.00 | 0.00 | 27 | 1001.8 |
| 20260504234459 | 26 | 153 | 4.8 | 9.7 | 0.00 | 0.00 | 0.00 | 26 | 1001.7 |
| 20260504233956 | 26 | 181 | 9.7 | 20.9 | 0.00 | 0.00 | 0.00 | 29 | 1001.6 |
| 20260504233451 | 26 | 126 | 8.0 | 12.9 | 0.00 | 0.00 | 0.00 | 30 | 1001.4 |
| 20260504232948 | 26 | 186 | 9.7 | 11.3 | 0.00 | 0.00 | 0.00 | 30 | 1001.4 |
| 20260504232445 | 26 | 173 | 11.3 | 14.5 | 0.00 | 0.00 | 0.00 | 29 | 1001.5 |
| 20260504231943 | 27 | 156 | 8.0 | 12.9 | 0.00 | 0.00 | 0.00 | 29 | 1001.8 |
| 20260504231439 | 27 | 131 | 14.5 | 16.1 | 0.00 | 0.00 | 0.00 | 27 | 1001.7 |
| 20260504230935 | 27 | 129 | 17.7 | 22.5 | 0.00 | 0.00 | 0.00 | 27 | 1001.5 |
| 20260504230432 | 27 | 184 | 4.8 | 22.5 | 0.00 | 0.00 | 0.00 | 28 | 1001.3 |
| 20260504225931 | 28 | 135 | 4.8 | 17.7 | 0.00 | 0.00 | 0.00 | 29 | 1001.6 |
| 20260504225427 | 29 | 148 | 12.9 | 17.7 | 0.00 | 0.00 | 0.00 | 24 | 1001.2 |
| 20260504224925 | 29 | 117 | 3.2 | 11.3 | 0.00 | 0.00 | 0.00 | 22 | 1001.4 |
| 20260504224421 | 29 | 123 | 4.8 | 12.9 | 0.00 | 0.00 | 0.00 | 23 | 1001.5 |
| 20260504223919 | 30 | 122 | 4.8 | 9.7 | 0.00 | 0.00 | 0.00 | 23 | 1001.4 |
| 20260504223414 | 30 | 143 | 6.4 | 12.9 | 0.00 | 0.00 | 0.00 | 22 | 1001.6 |
| 20260504222910 | 31 | 152 | 6.4 | 11.3 | 0.00 | 0.00 | 0.00 | 22 | 1001.3 |
| 20260504222408 | 31 | 162 | 0.0 | 1.6 | 0.00 | 0.00 | 0.00 | 19 | 1001.4 |
| 20260504221906 | 31 | 156 | 1.6 | 11.3 | 0.00 | 0.00 | 0.00 | 19 | 1001.3 |
| 20260504221402 | 31 | 168 | 3.2 | 3.2 | 0.00 | 0.00 | 0.00 | 19 | 1001.4 |
| 20260504220859 | 31 | 118 | 1.6 | 9.7 | 0.00 | 0.00 | 0.00 | 19 | 1001.5 |
| 20260504220356 | 31 | 120 | 3.2 | 12.9 | 0.00 | 0.00 | 0.00 | 19 | 1001.5 |
| 20260504215853 | 31 | 90 | 3.2 | 6.4 | 0.00 | 0.00 | 0.00 | 19 | 1001.5 |
| 20260504215349 | 31 | 129 | 4.8 | 12.9 | 0.00 | 0.00 | 0.00 | 19 | 1001.5 |
| 20260504214846 | 31 | 39 | 3.2 | 11.3 | 0.00 | 0.00 | 0.00 | 18 | 1001.5 |
| 20260504214343 | 31 | 175 | 1.6 | 12.9 | 0.00 | 0.00 | 0.00 | 17 | 1001.7 |
| 20260504213839 | 31 | 120 | 4.8 | 6.4 | 0.00 | 0.00 | 0.00 | 17 | 1001.5 |
| 20260504213335 | 31 | 162 | 4.8 | 9.7 | 0.00 | 0.00 | 0.00 | 17 | 1001.4 |
| 20260504212833 | 31 | 145 | 4.8 | 12.9 | 0.00 | 0.00 | 0.00 | 16 | 1001.7 |
| 20260504212329 | 31 | 177 | 1.6 | 14.5 | 0.00 | 0.00 | 0.00 | 16 | 1001.7 |
| 20260504211827 | 31 | 206 | 8.0 | 14.5 | 0.00 | 0.00 | 0.00 | 17 | 1001.7 |
| 20260504211328 | 31 | 118 | 1.6 | 4.8 | 0.00 | 0.00 | 0.00 | 17 | 1001.6 |
| 20260504210826 | 31 | 105 | 1.6 | 11.3 | 0.00 | 0.00 | 0.00 | 16 | 1002.0 |
| 20260504210322 | 30 | 159 | 6.4 | 11.3 | 0.00 | 0.00 | 0.00 | 16 | 1002.2 |
| 20260504205820 | 31 | 122 | 1.6 | 9.7 | 0.00 | 0.00 | 0.00 | 18 | 1002.4 |
| 20260504205317 | 31 | 262 | 1.6 | 4.8 | 0.00 | 0.00 | 0.00 | 17 | 1002.3 |
| 20260504204815 | 31 | 137 | 3.2 | 11.3 | 0.00 | 0.00 | 0.00 | 18 | 1002.4 |
| 20260504204314 | 30 | 94 | 1.6 | 9.7 | 0.00 | 0.00 | 0.00 | 18 | 1002.6 |
| 20260504203813 | 30 | 168 | 11.3 | 12.9 | 0.00 | 0.00 | 0.00 | 18 | 1002.4 |
| 20260504203309 | 30 | 127 | 9.7 | 16.1 | 0.00 | 0.00 | 0.00 | 18 | 1002.6 |
| 20260504202804 | 30 | 51 | 6.4 | 9.7 | 0.00 | 0.00 | 0.00 | 18 | 1002.8 |
| 20260504202302 | 30 | 132 | 4.8 | 14.5 | 0.00 | 0.00 | 0.00 | 18 | 1002.9 |
| 20260504201758 | 31 | 124 | 11.3 | 14.5 | 0.00 | 0.00 | 0.00 | 18 | 1002.7 |
| 20260504201256 | 31 | 150 | 0.0 | 4.8 | 0.00 | 0.00 | 0.00 | 18 | 1003.0 |
| 20260504200753 | 31 | 153 | 1.6 | 3.2 | 0.00 | 0.00 | 0.00 | 18 | 1003.2 |
| 20260504200249 | 31 | 116 | 6.4 | 14.5 | 0.00 | 0.00 | 0.00 | 18 | 1002.9 |
| 20260504195746 | 30 | 234 | 3.2 | 6.4 | 0.00 | 0.00 | 0.00 | 18 | 1003.2 |
| 20260504195241 | 31 | 140 | 4.8 | 22.5 | 0.00 | 0.00 | 0.00 | 18 | 1003.2 |
| 20260504194739 | 31 | 111 | 1.6 | 4.8 | 0.00 | 0.00 | 0.00 | 18 | 1003.4 |
| 20260504194235 | 31 | 148 | 3.2 | 4.8 | 0.00 | 0.00 | 0.00 | 19 | 1003.1 |
| 20260504193731 | 31 | 165 | 0.0 | 14.5 | 0.00 | 0.00 | 0.00 | 19 | 1003.3 |
| 20260504193229 | 31 | 206 | 6.4 | 14.5 | 0.00 | 0.00 | 0.00 | 18 | 1003.2 |
| 20260504192727 | 30 | 172 | 1.6 | 4.8 | 0.00 | 0.00 | 0.00 | 19 | 1003.3 |
| 20260504192225 | 30 | 100 | 3.2 | 11.3 | 0.00 | 0.00 | 0.00 | 19 | 1003.4 |
| 20260504191724 | 31 | 126 | 4.8 | 14.5 | 0.00 | 0.00 | 0.00 | 18 | 1003.6 |
| 20260504191220 | 31 | 123 | 1.6 | 4.8 | 0.00 | 0.00 | 0.00 | 18 | 1003.9 |
| 20260504190715 | 31 | 19 | 1.6 | 9.7 | 0.00 | 0.00 | 0.00 | 19 | 1003.5 |
| 20260504190212 | 30 | 135 | 1.6 | 4.8 | 0.00 | 0.00 | 0.00 | 19 | 1003.7 |
| 20260504185708 | 30 | 78 | 3.2 | 14.5 | 0.00 | 0.00 | 0.00 | 19 | 1004.0 |
| 20260504185205 | 30 | 109 | 3.2 | 6.4 | 0.00 | 0.00 | 0.00 | 19 | 1004.0 |
| 20260504184701 | 30 | 138 | 4.8 | 6.4 | 0.00 | 0.00 | 0.00 | 19 | 1004.1 |
| 20260504184156 | 30 | 108 | 1.6 | 6.4 | 0.00 | 0.00 | 0.00 | 18 | 1004.2 |
| 20260504183653 | 30 | 138 | 1.6 | 14.5 | 0.00 | 0.00 | 0.00 | 19 | 1004.1 |
| 20260504183150 | 30 | 149 | 3.2 | 11.3 | 0.00 | 0.00 | 0.00 | 18 | 1004.2 |
| 20260504182648 | 30 | 92 | 3.2 | 14.5 | 0.00 | 0.00 | 0.00 | 19 | 1004.3 |
| 20260504182145 | 30 | 113 | 3.2 | 4.8 | 0.00 | 0.00 | 0.00 | 18 | 1004.4 |
| 20260504181643 | 29 | 135 | 0.0 | 11.3 | 0.00 | 0.00 | 0.00 | 21 | 1004.4 |
| 20260504181140 | 29 | 141 | 3.2 | 12.9 | 0.00 | 0.00 | 0.00 | 20 | 1004.5 |
| 20260504180640 | 29 | 21 | 3.2 | 14.5 | 0.00 | 0.00 | 0.00 | 20 | 1004.5 |
| 20260504180138 | 28 | 80 | 6.4 | 12.9 | 0.00 | 0.00 | 0.00 | 20 | 1004.6 |
| 20260504175634 | 28 | 19 | 9.7 | 17.7 | 0.00 | 0.00 | 0.00 | 21 | 1004.4 |
| 20260504175131 | 28 | 120 | 6.4 | 16.1 | 0.00 | 0.00 | 0.00 | 21 | 1004.4 |
| 20260504174630 | 28 | 115 | 4.8 | 9.7 | 0.00 | 0.00 | 0.00 | 21 | 1004.7 |
| 20260504174125 | 28 | 130 | 1.6 | 11.3 | 0.00 | 0.00 | 0.00 | 22 | 1004.9 |
| 20260504173623 | 28 | 111 | 1.6 | 9.7 | 0.00 | 0.00 | 0.00 | 24 | 1004.8 |
| 20260504173120 | 28 | 51 | 3.2 | 6.4 | 0.00 | 0.00 | 0.00 | 23 | 1004.8 |
| 20260504172617 | 28 | 127 | 8.0 | 14.5 | 0.00 | 0.00 | 0.00 | 24 | 1005.0 |
| 20260504172113 | 28 | 144 | 8.0 | 16.1 | 0.00 | 0.00 | 0.00 | 22 | 1004.9 |
| 20260504171609 | 27 | 122 | 1.6 | 14.5 | 0.00 | 0.00 | 0.00 | 23 | 1005.0 |
| 20260504171107 | 27 | 60 | 6.4 | 12.9 | 0.00 | 0.00 | 0.00 | 24 | 1005.2 |
| 20260504170602 | 28 | 83 | 6.4 | 11.3 | 0.00 | 0.00 | 0.00 | 23 | 1004.9 |
| 20260504150946 | 22 | 203 | 3.2 | 9.7 | 0.00 | 0.00 | 0.00 | 34 | 1004.7 |
| 20260504150443 | 22 | 251 | 3.2 | 6.4 | 0.00 | 0.00 | 0.00 | 37 | 1004.7 |
| 20260504140909 | 18 | 198 | 1.6 | 9.7 | 0.00 | 0.00 | 0.00 | 42 | 1004.7 |
| 20260504140406 | 18 | 189 | 3.2 | 4.8 | 0.00 | 0.00 | 0.00 | 44 | 1004.7 |
| 20260504130331 | 12 | 188 | 1.6 | 3.2 | 0.00 | 0.00 | 0.00 | 58 | 1004.9 |
| 20260504120254 | 11 | 197 | 3.2 | 3.2 | 0.00 | 0.00 | 0.00 | 63 | 1004.7 |
| 20260504110218 | 14 | 204 | 4.8 | 9.7 | 0.00 | 0.00 | 0.00 | 52 | 1004.5 |
| 20260504100142 | 15 | 216 | 6.4 | 6.4 | 0.00 | 0.00 | 0.00 | 49 | 1004.9 |
| 20260504090104 | 15 | 201 | 3.2 | 9.7 | 0.00 | 0.00 | 0.00 | 49 | 1005.5 |
| 20260504081535 | 16 | 191 | 3.2 | 9.7 | 0.00 | 0.00 | 0.00 | 45 | 1005.5 |
| 20260504081030 | 17 | 183 | 6.4 | 14.5 | 0.00 | 0.00 | 0.00 | 44 | 1005.5 |
| 20260504080527 | 17 | 166 | 3.2 | 9.7 | 0.00 | 0.00 | 0.00 | 43 | 1005.6 |